Time,TemperatureF,DewpointF,PressureIn,WindDirection,WindDirectionDegrees,WindSpeedMPH,WindSpeedGustMPH,Humidity,HourlyPrecipIn,Conditions,Clouds,dailyrainin,SoftwareType,DateUTC
2013-05-31 00:02:00,68.0,68.0,-100.00,East,95,2.0,3.0,99,0.00,,,-99.99,,2013-05-31 04:02:00,
2013-05-31 00:12:00,68.0,68.0,-100.00,East,100,2.0,3.0,99,0.00,,,-99.99,,2013-05-31 04:12:00,
2013-05-31 00:22:00,68.0,68.0,-100.00,ENE,75,1.0,2.0,99,0.00,,,-99.99,,2013-05-31 04:22:00,
2013-05-31 00:33:00,67.0,67.0,-100.00,East,90,1.0,2.0,99,0.00,,,-99.99,,2013-05-31 04:33:00,
2013-05-31 00:42:00,67.0,67.0,-100.00,East,95,2.0,4.0,99,0.00,,,-99.99,,2013-05-31 04:42:00,
2013-05-31 00:53:00,68.0,68.0,-100.00,East,95,2.0,3.0,99,0.00,,,-99.99,,2013-05-31 04:53:00,
2013-05-31 01:02:00,67.0,67.0,-100.00,East,90,1.0,2.0,99,0.00,,,-99.99,,2013-05-31 05:02:00,
2013-05-31 01:12:00,67.0,67.0,-100.00,East,90,2.0,2.0,99,0.00,,,-99.99,,2013-05-31 05:12:00,
2013-05-31 01:22:00,67.0,67.0,-100.00,East,100,2.0,4.0,99,0.00,,,-99.99,,2013-05-31 05:22:00,
2013-05-31 01:32:00,68.0,68.0,-100.00,East,90,3.0,5.0,99,0.00,,,-99.99,,2013-05-31 05:32:00,
2013-05-31 01:42:00,68.0,68.0,-100.00,East,95,2.0,4.0,99,0.00,,,-99.99,,2013-05-31 05:42:00,
2013-05-31 01:52:00,68.0,68.0,-100.00,East,100,2.0,4.0,99,0.00,,,-99.99,,2013-05-31 05:52:00,
2013-05-31 02:02:00,68.0,68.0,-100.00,East,95,3.0,4.0,99,0.00,,,-99.99,,2013-05-31 06:02:00,
2013-05-31 02:12:00,69.0,69.0,-100.00,ESE,115,3.0,5.0,99,0.00,,,-99.99,,2013-05-31 06:12:00,
2013-05-31 02:22:00,69.0,69.0,-100.00,ESE,110,2.0,6.0,99,0.00,,,-99.99,,2013-05-31 06:22:00,
2013-05-31 02:32:00,69.0,69.0,-100.00,SE,125,2.0,4.0,99,0.00,,,-99.99,,2013-05-31 06:32:00,
2013-05-31 02:41:00,70.0,70.0,-100.00,ESE,115,3.0,6.0,99,0.00,,,-99.99,,2013-05-31 06:41:00,
2013-05-31 02:51:00,70.0,70.0,-100.00,SE,130,2.0,6.0,99,0.00,,,-99.99,,2013-05-31 06:51:00,
2013-05-31 03:02:00,70.0,70.0,-100.00,SE,130,4.0,6.0,99,0.00,,,-99.99,,2013-05-31 07:02:00,
2013-05-31 03:11:00,71.0,71.0,-100.00,SSE,155,3.0,6.0,99,0.00,,,-99.99,,2013-05-31 07:11:00,
2013-05-31 03:21:00,71.0,71.0,-100.00,SSE,155,4.0,7.0,99,0.00,,,-99.99,,2013-05-31 07:21:00,
2013-05-31 03:32:00,71.0,71.0,-100.00,SE,130,3.0,7.0,97,0.00,,,-99.99,,2013-05-31 07:32:00,
2013-05-31 03:41:00,72.0,71.0,-100.00,ESE,120,4.0,7.0,95,0.00,,,-99.99,,2013-05-31 07:41:00,
2013-05-31 03:52:00,72.0,70.0,-100.00,SE,140,4.0,7.0,94,0.00,,,-99.99,,2013-05-31 07:52:00,
2013-05-31 04:02:00,72.0,70.0,-100.00,SE,145,3.0,6.0,93,0.00,,,-99.99,,2013-05-31 08:02:00,
2013-05-31 04:11:00,72.0,70.0,-100.00,SE,145,2.0,7.0,93,0.00,,,-99.99,,2013-05-31 08:11:00,
2013-05-31 04:22:00,72.0,70.0,-100.00,SE,140,4.0,8.0,93,0.00,,,-99.99,,2013-05-31 08:22:00,
2013-05-31 04:32:00,72.0,70.0,-100.00,South,170,3.0,6.0,92,0.00,,,-99.99,,2013-05-31 08:32:00,
2013-05-31 04:42:00,72.0,70.0,-100.00,SSE,160,3.0,7.0,92,0.00,,,-99.99,,2013-05-31 08:42:00,
2013-05-31 04:51:00,72.0,70.0,-100.00,SSE,155,5.0,7.0,91,0.00,,,-99.99,,2013-05-31 08:51:00,
2013-05-31 05:01:00,72.0,70.0,-100.00,SE,140,3.0,6.0,91,0.00,,,-99.99,,2013-05-31 09:01:00,
2013-05-31 05:11:00,72.0,70.0,-100.00,SSE,160,4.0,7.0,91,0.00,,,-99.99,,2013-05-31 09:11:00,
2013-05-31 05:21:00,72.0,70.0,-100.00,South,190,5.0,9.0,91,0.00,,,-99.99,,2013-05-31 09:21:00,
2013-05-31 05:32:00,72.0,67.0,-100.00,SE,145,4.0,8.0,84,0.00,,,-99.99,,2013-05-31 09:32:00,
2013-05-31 05:43:00,72.0,70.0,-100.00,South,185,4.0,7.0,91,0.00,,,-99.99,,2013-05-31 09:43:00,
2013-05-31 05:53:00,72.0,69.0,-100.00,SSE,150,4.0,9.0,91,0.00,,,-99.99,,2013-05-31 09:53:00,
2013-05-31 06:02:00,72.0,69.0,-100.00,SSE,165,3.0,7.0,91,0.00,,,-99.99,,2013-05-31 10:02:00,
2013-05-31 06:12:00,72.0,69.0,-100.00,SE,135,3.0,7.0,91,0.00,,,-99.99,,2013-05-31 10:12:00,
2013-05-31 06:22:00,72.0,69.0,-100.00,South,170,3.0,7.0,91,0.00,,,-99.99,,2013-05-31 10:22:00,
2013-05-31 06:33:00,72.0,69.0,-100.00,SE,145,4.0,8.0,91,0.00,,,-99.99,,2013-05-31 10:33:00,
2013-05-31 06:42:00,71.0,69.0,-100.00,SE,130,4.0,9.0,91,0.00,,,-99.99,,2013-05-31 10:42:00,
2013-05-31 06:52:00,71.0,69.0,-100.00,SE,140,3.0,7.0,91,0.00,,,-99.99,,2013-05-31 10:52:00,
2013-05-31 07:02:00,71.0,69.0,-100.00,SE,145,6.0,8.0,91,0.00,,,-99.99,,2013-05-31 11:02:00,
2013-05-31 07:12:00,72.0,69.0,-100.00,SE,145,6.0,11.0,91,0.00,,,-99.99,,2013-05-31 11:12:00,
2013-05-31 07:22:00,72.0,69.0,-100.00,SE,145,5.0,12.0,90,0.00,,,-99.99,,2013-05-31 11:22:00,
2013-05-31 07:32:00,73.0,69.0,-100.00,SSE,150,6.0,9.0,88,0.00,,,-99.99,,2013-05-31 11:32:00,
2013-05-31 07:42:00,73.0,69.0,-100.00,ESE,120,4.0,9.0,87,0.00,,,-99.99,,2013-05-31 11:42:00,
2013-05-31 07:52:00,73.0,69.0,-100.00,SE,130,8.0,12.0,86,0.00,,,-99.99,,2013-05-31 11:52:00,
2013-05-31 08:01:00,73.0,69.0,-100.00,SE,140,4.0,11.0,87,0.00,,,-99.99,,2013-05-31 12:01:00,
2013-05-31 08:11:00,73.0,69.0,-100.00,SSE,165,7.0,11.0,86,0.00,,,-99.99,,2013-05-31 12:11:00,
2013-05-31 08:22:00,74.0,69.0,-100.00,SSE,150,7.0,14.0,86,0.00,,,-99.99,,2013-05-31 12:22:00,
2013-05-31 08:32:00,74.0,70.0,-100.00,SSW,210,6.0,11.0,85,0.00,,,-99.99,,2013-05-31 12:32:00,
2013-05-31 08:41:00,74.0,70.0,-100.00,South,190,6.0,15.0,84,0.00,,,-99.99,,2013-05-31 12:41:00,
2013-05-31 08:52:00,75.0,70.0,-100.00,SSE,165,7.0,12.0,83,0.00,,,-99.99,,2013-05-31 12:52:00,
2013-05-31 09:01:00,76.0,70.0,-100.00,South,175,7.0,14.0,81,0.00,,,-99.99,,2013-05-31 13:01:00,
2013-05-31 09:11:00,76.0,70.0,-100.00,South,190,9.0,14.0,80,0.00,,,-99.99,,2013-05-31 13:11:00,
2013-05-31 09:21:00,77.0,70.0,-100.00,South,180,11.0,19.0,79,0.00,,,-99.99,,2013-05-31 13:21:00,
2013-05-31 09:32:00,78.0,71.0,-100.00,SSW,195,10.0,18.0,78,0.00,,,-99.99,,2013-05-31 13:32:00,
2013-05-31 09:42:00,78.0,71.0,-100.00,South,175,6.0,17.0,77,0.00,,,-99.99,,2013-05-31 13:42:00,
2013-05-31 09:52:00,78.0,70.0,-100.00,South,190,12.0,17.0,77,0.00,,,-99.99,,2013-05-31 13:52:00,
2013-05-31 10:02:00,78.0,71.0,-100.00,SSE,155,7.0,17.0,77,0.00,,,-99.99,,2013-05-31 14:02:00,
2013-05-31 10:11:00,78.0,71.0,-100.00,South,185,9.0,14.0,78,0.00,,,-99.99,,2013-05-31 14:11:00,
2013-05-31 10:21:00,78.0,71.0,-100.00,South,170,9.0,15.0,78,0.00,,,-99.99,,2013-05-31 14:21:00,
2013-05-31 10:32:00,78.0,71.0,-100.00,SSW,205,7.0,15.0,79,0.00,,,-99.99,,2013-05-31 14:32:00,
2013-05-31 10:42:00,78.0,71.0,-100.00,SSW,200,7.0,12.0,79,0.00,,,-99.99,,2013-05-31 14:42:00,
2013-05-31 10:52:00,78.0,71.0,-100.00,South,180,9.0,15.0,78,0.00,,,-99.99,,2013-05-31 14:52:00,
2013-05-31 11:01:00,80.0,71.0,-100.00,SSE,155,9.0,14.0,74,0.00,,,-99.99,,2013-05-31 15:01:00,
2013-05-31 11:11:00,78.0,70.0,-100.00,South,190,7.0,16.0,75,0.00,,,-99.99,,2013-05-31 15:11:00,
2013-05-31 11:21:00,78.0,69.0,-100.00,South,175,11.0,19.0,75,0.00,,,-99.99,,2013-05-31 15:21:00,
2013-05-31 11:33:00,76.0,70.0,-100.00,SSE,160,7.0,17.0,80,0.00,,,-99.99,,2013-05-31 15:33:00,
2013-05-31 11:43:00,75.0,71.0,-100.00,South,185,7.0,16.0,86,0.00,,,-99.99,,2013-05-31 15:43:00,
2013-05-31 11:53:00,76.0,72.0,-100.00,South,190,7.0,14.0,88,0.00,,,-99.99,,2013-05-31 15:53:00,
2013-05-31 12:03:00,75.0,71.0,-100.00,South,190,9.0,16.0,88,1.10,,,-99.99,,2013-05-31 16:03:00,
2013-05-31 12:12:00,76.0,72.0,-100.00,SSW,200,6.0,13.0,88,0.00,,,-99.99,,2013-05-31 16:12:00,
2013-05-31 12:22:00,76.0,72.0,-100.00,SSW,205,9.0,12.0,88,0.55,,,-99.99,,2013-05-31 16:22:00,
2013-05-31 12:33:00,76.0,73.0,-100.00,SW,215,7.0,15.0,89,1.10,,,-99.99,,2013-05-31 16:33:00,
2013-05-31 12:42:00,76.0,73.0,-100.00,SSW,205,7.0,14.0,90,0.55,,,-99.99,,2013-05-31 16:42:00,
2013-05-31 12:52:00,75.0,73.0,-100.00,SSW,195,7.0,11.0,92,-99.99,,,-99.99,,2013-05-31 16:52:00,
2013-05-31 13:02:00,74.0,73.0,-100.00,SSE,165,6.0,11.0,95,1.10,,,-99.99,,2013-05-31 17:02:00,
2013-05-31 13:12:00,74.0,73.0,-100.00,SSW,200,7.0,11.0,97,0.55,,,-99.99,,2013-05-31 17:12:00,
2013-05-31 13:22:00,73.0,73.0,-100.00,SSW,210,8.0,14.0,97,3.39,,,-99.99,,2013-05-31 17:22:00,
2013-05-31 13:32:00,74.0,73.0,-100.00,SSW,205,9.0,12.0,96,0.55,,,-99.99,,2013-05-31 17:32:00,
2013-05-31 13:42:00,74.0,73.0,-100.00,South,185,7.0,11.0,96,1.10,,,-99.99,,2013-05-31 17:42:00,
2013-05-31 13:52:00,74.0,72.0,-100.00,SSW,200,11.0,16.0,94,0.55,,,-99.99,,2013-05-31 17:52:00,
2013-05-31 14:02:00,75.0,73.0,-100.00,SSW,205,6.0,16.0,94,0.55,,,-99.99,,2013-05-31 18:02:00,
2013-05-31 14:12:00,74.0,72.0,-100.00,South,190,9.0,15.0,94,0.55,,,-99.99,,2013-05-31 18:12:00,
2013-05-31 14:22:00,74.0,72.0,-100.00,South,190,8.0,14.0,94,0.55,,,-99.99,,2013-05-31 18:22:00,
2013-05-31 14:32:00,73.0,72.0,-100.00,SSW,205,9.0,14.0,94,1.10,,,-99.99,,2013-05-31 18:32:00,
2013-05-31 14:42:00,73.0,72.0,-100.00,SSW,205,7.0,12.0,94,0.55,,,-99.99,,2013-05-31 18:42:00,
2013-05-31 14:52:00,74.0,72.0,-100.00,South,170,7.0,10.0,91,0.55,,,-99.99,,2013-05-31 18:52:00,
2013-05-31 15:02:00,74.0,71.0,-100.00,South,190,8.0,14.0,90,0.00,,,-99.99,,2013-05-31 19:02:00,
2013-05-31 15:11:00,75.0,71.0,-100.00,South,190,6.0,17.0,89,1.10,,,-99.99,,2013-05-31 19:11:00,
2013-05-31 15:22:00,74.0,71.0,-100.00,South,185,9.0,17.0,88,0.55,,,-99.99,,2013-05-31 19:22:00,
2013-05-31 15:32:00,75.0,71.0,-100.00,SSE,155,3.0,12.0,88,0.55,,,-99.99,,2013-05-31 19:32:00,
2013-05-31 15:42:00,75.0,71.0,-100.00,SSE,165,6.0,11.0,89,0.55,,,-99.99,,2013-05-31 19:42:00,
2013-05-31 15:52:00,75.0,72.0,-100.00,South,190,5.0,10.0,89,0.00,,,-99.99,,2013-05-31 19:52:00,
2013-05-31 16:02:00,75.0,72.0,-100.00,SSW,205,6.0,12.0,89,0.00,,,-99.99,,2013-05-31 20:02:00,
2013-05-31 16:11:00,75.0,72.0,-100.00,South,190,6.0,12.0,88,0.00,,,-99.99,,2013-05-31 20:11:00,
2013-05-31 16:22:00,76.0,72.0,-100.00,SSW,200,7.0,14.0,87,0.00,,,-99.99,,2013-05-31 20:22:00,
2013-05-31 16:32:00,75.0,71.0,-100.00,South,180,8.0,17.0,87,0.55,,,-99.99,,2013-05-31 20:32:00,
2013-05-31 16:42:00,75.0,71.0,-100.00,SSW,200,11.0,16.0,86,0.55,,,-99.99,,2013-05-31 20:42:00,
2013-05-31 16:52:00,76.0,72.0,-100.00,South,190,9.0,16.0,85,0.00,,,-99.99,,2013-05-31 20:52:00,
2013-05-31 17:01:00,76.0,71.0,-100.00,SSE,165,7.0,13.0,85,0.00,,,-99.99,,2013-05-31 21:01:00,
2013-05-31 17:11:00,76.0,72.0,-100.00,SSE,165,9.0,14.0,84,0.00,,,-99.99,,2013-05-31 21:11:00,
2013-05-31 17:22:00,77.0,72.0,-100.00,South,190,7.0,14.0,84,0.00,,,-99.99,,2013-05-31 21:22:00,
2013-05-31 17:33:00,76.0,70.0,-100.00,SSW,205,11.0,17.0,83,0.00,,,-99.99,,2013-05-31 21:33:00,
2013-05-31 17:42:00,75.0,71.0,-100.00,South,185,7.0,12.0,87,1.10,,,-99.99,,2013-05-31 21:42:00,
2013-05-31 17:53:00,74.0,72.0,-100.00,South,185,7.0,11.0,91,0.00,,,-99.99,,2013-05-31 21:53:00,
2013-05-31 18:02:00,73.0,72.0,-100.00,South,185,7.0,12.0,94,0.00,,,-99.99,,2013-05-31 22:02:00,
2013-05-31 18:12:00,74.0,73.0,-100.00,SSW,210,7.0,11.0,95,0.00,,,-99.99,,2013-05-31 22:12:00,
2013-05-31 18:22:00,74.0,72.0,-100.00,South,175,6.0,12.0,94,0.00,,,-99.99,,2013-05-31 22:22:00,
2013-05-31 18:33:00,74.0,72.0,-100.00,SSW,200,7.0,11.0,91,0.00,,,-99.99,,2013-05-31 22:33:00,
2013-05-31 18:42:00,74.0,71.0,-100.00,South,180,10.0,15.0,91,0.00,,,-99.99,,2013-05-31 22:42:00,
2013-05-31 18:52:00,74.0,72.0,-100.00,SSW,200,9.0,14.0,91,0.00,,,-99.99,,2013-05-31 22:52:00,
2013-05-31 19:02:00,74.0,72.0,-100.00,South,180,7.0,13.0,91,0.00,,,-99.99,,2013-05-31 23:02:00,
2013-05-31 19:12:00,74.0,72.0,-100.00,South,180,9.0,12.0,91,0.00,,,-99.99,,2013-05-31 23:12:00,
2013-05-31 19:21:00,74.0,72.0,-100.00,South,190,4.0,9.0,92,0.00,,,-99.99,,2013-05-31 23:21:00,
2013-05-31 19:32:00,74.0,72.0,-100.00,SSE,150,5.0,7.0,91,0.00,,,-99.99,,2013-05-31 23:32:00,
2013-05-31 19:42:00,75.0,72.0,-100.00,South,190,5.0,10.0,91,0.00,,,-99.99,,2013-05-31 23:42:00,
2013-05-31 19:52:00,75.0,72.0,-100.00,South,190,5.0,10.0,91,0.00,,,-99.99,,2013-05-31 23:52:00,
2013-05-31 20:01:00,74.0,72.0,-100.00,South,170,4.0,12.0,91,0.00,,,-99.99,,2013-06-01 00:01:00,
2013-05-31 20:12:00,74.0,72.0,-100.00,South,185,4.0,10.0,92,0.00,,,-99.99,,2013-06-01 00:12:00,
2013-05-31 20:22:00,74.0,72.0,-100.00,South,175,2.0,9.0,92,0.00,,,-99.99,,2013-06-01 00:22:00,
2013-05-31 20:32:00,74.0,72.0,-100.00,South,170,3.0,9.0,92,0.00,,,-99.99,,2013-06-01 00:32:00,
2013-05-31 20:42:00,74.0,72.0,-100.00,SSE,160,3.0,8.0,93,0.00,,,-99.99,,2013-06-01 00:42:00,
2013-05-31 20:52:00,74.0,72.0,-100.00,SSE,160,3.0,6.0,93,0.00,,,-99.99,,2013-06-01 00:52:00,
2013-05-31 21:01:00,74.0,72.0,-100.00,SE,145,4.0,7.0,94,0.00,,,-99.99,,2013-06-01 01:01:00,
2013-05-31 21:11:00,73.0,72.0,-100.00,SSE,150,2.0,5.0,94,0.00,,,-99.99,,2013-06-01 01:11:00,
2013-05-31 21:22:00,73.0,72.0,-100.00,SE,140,2.0,4.0,95,0.00,,,-99.99,,2013-06-01 01:22:00,
2013-05-31 21:32:00,73.0,72.0,-100.00,SE,135,2.0,4.0,96,0.00,,,-99.99,,2013-06-01 01:32:00,
2013-05-31 21:42:00,72.0,71.0,-100.00,ESE,110,1.0,2.0,97,0.00,,,-99.99,,2013-06-01 01:42:00,
2013-05-31 21:52:00,71.0,71.0,-100.00,SE,135,1.0,2.0,98,0.00,,,-99.99,,2013-06-01 01:52:00,
2013-05-31 22:02:00,71.0,71.0,-100.00,SE,140,2.0,4.0,98,0.00,,,-99.99,,2013-06-01 02:02:00,
2013-05-31 22:11:00,71.0,71.0,-100.00,SE,125,4.0,6.0,99,0.00,,,-99.99,,2013-06-01 02:11:00,
2013-05-31 22:21:00,71.0,71.0,-100.00,SE,145,4.0,7.0,99,0.00,,,-99.99,,2013-06-01 02:21:00,
2013-05-31 22:32:00,72.0,71.0,-100.00,SSE,165,4.0,7.0,99,0.00,,,-99.99,,2013-06-01 02:32:00,
2013-05-31 22:42:00,72.0,72.0,-100.00,SSE,160,3.0,6.0,99,0.00,,,-99.99,,2013-06-01 02:42:00,
2013-05-31 22:52:00,72.0,72.0,-100.00,SE,140,3.0,7.0,98,0.00,,,-99.99,,2013-06-01 02:52:00,
2013-05-31 23:02:00,72.0,72.0,-100.00,SSW,205,4.0,9.0,98,0.00,,,-99.99,,2013-06-01 03:02:00,
2013-05-31 23:11:00,73.0,72.0,-100.00,South,190,4.0,11.0,97,0.00,,,-99.99,,2013-06-01 03:11:00,
2013-05-31 23:21:00,73.0,72.0,-100.00,SSW,205,4.0,9.0,97,0.00,,,-99.99,,2013-06-01 03:21:00,
2013-05-31 23:33:00,73.0,72.0,-100.00,South,175,4.0,7.0,96,0.55,,,-99.99,,2013-06-01 03:33:00,
2013-05-31 23:43:00,73.0,72.0,-100.00,South,175,5.0,12.0,97,1.69,,,-99.99,,2013-06-01 03:43:00,
2013-05-31 23:53:00,72.0,72.0,-100.00,SSW,200,6.0,13.0,98,2.24,,,-99.99,,2013-06-01 03:53:00,